x

South Santa Rosa Is. Ca (46069) Wave Buoy

10:50 - Fri 19th Sep 2014 All times are PDT. -7 hours from GMT.

  • Sig Wave height 5.2ft
  • Peak Period 13s
  • Average Period 6s
  • Wind
    16mph, 20mph gusts
  • Sea Temp 69°f
  • Ar Temp 67°f
  • Sea Pressure 1011.6mb
  • South Santa Rosa Is. Ca
  • South Santa Rosa Is. Ca

More Historic Weather Station data

Upgrade to MSW Pro to gain access to the past 30 days of data for over 8000 Wavebouys and Weather Stations around the globe.

Join Pro

Comparision Forecast

View Surf forecast
   
Sex 09/19 10:50 5ft 13s 6s 16 20 mph 1011.6mb 69f 67f
9:50 5.5ft 14s 7s 16 20 mph 1011.5mb 69f 67f
8:50 5.5ft 11s 7s 16 20 mph 1011.4mb 69f 67f
7:50 6ft 10s 7s 18 20 mph 1010.9mb 69f 67f
5:50 5.5ft 15s 7s 16 18 mph 1010.7mb 70f 67f
4:50 6ft 11s 8s 13 16 mph 1010.8mb 70f 67f
3:50 6ft 10s 8s 13 16 mph 1011mb 70f 67f
2:50 6ft 11s 8s 13 16 mph 1011.2mb 70f 67f
1:50 7ft 15s 8s 11 13 mph 1011.8mb 70f 67f
12:50 6ft 15s 8s 9 11 mph 1012.2mb 70f 66f
11:50 6ft 9s 8s 13 16 mph 1012.5mb 69f 66f
10:50 6.5ft 11s 8s 16 18 mph 1012.5mb 69f 67f
9:50 7ft 10s 8s 16 18 mph 1012.7mb 69f 67f
8:50 6.5ft 15s 7s 16 20 mph 1012.5mb 69f 66f
7:50 6.5ft 9s 7s 16 18 mph 1012.2mb 69f 66f
6:50 6.5ft 15s 7s 18 20 mph 1011.7mb 69f 66f
5:50 6.5ft 11s 7s 18 22 mph 1011.2mb 69f 66f
4:50 6.5ft 12s 7s 18 20 mph 1011mb 69f 67f
3:50 6ft 8s 7s 18 22 mph 1011.1mb 69f 67f
2:50 7.5ft 15s 7s 18 20 mph 1011.1mb 69f 67f
1:50 7ft 15s 7s 18 20 mph 1011.3mb 69f 67f
12:50 7ft 12s 7s 18 22 mph 1011mb 69f 67f
Qui 09/18 11:50 7ft 15s 7s 18 22 mph 1011.3mb 69f 67f
10:50 6ft 9s 7s 18 22 mph 1011mb 69f 67f
9:50 7ft 16s 7s 18 20 mph 1010.9mb 69f 67f
8:50 6.5ft 15s 7s 20 22 mph 1010.7mb 69f 67f
7:50 6ft 16s 7s 18 22 mph 1010.2mb 70f 67f
6:50 7ft 16s 7s 18 22 mph 1010mb 70f 67f
5:50 6ft 12s 7s 20 25 mph 1010mb 70f 67f
4:50 6ft 10s 7s 16 20 mph 1010.1mb 71f 68f
3:50 6ft 10s 8s 18 20 mph 1010.1mb 71f 68f
2:50 6ft 16s 8s 16 18 mph 1010.6mb 71f 68f
1:50 7ft 16s 9s 11 13 mph 1011.1mb 71f 69f
12:50 6ft 9s 8s 11 13 mph 1011.6mb 70f 68f
11:50 6.5ft 10s 8s 11 13 mph 1012mb 70f 68f
10:50 6ft 16s 9s 16 18 mph 1012.1mb 70f 67f
9:50 7ft 16s 9s 13 18 mph 1012mb 70f 67f
8:50 6ft 10s 9s 11 13 mph 1011.5mb 70f 67f
7:50 6ft 16s 8s 13 18 mph 1010.8mb 69f 67f
6:50 5.5ft 16s 8s 13 16 mph 1010.1mb 69f 67f
5:50 5ft 15s 7s 13 16 mph 1009.6mb 69f 67f
4:50 6ft 16s 7s 18 20 mph 1009.4mb 69f 67f
3:50 5ft 15s 6s 18 22 mph 1009.3mb 69f 67f
2:50 5ft 16s 7s 18 22 mph 1009.5mb 69f 67f
1:50 5ft 16s 7s 18 20 mph 1009.5mb 69f 67f
12:50 5ft 16s 6s 18 22 mph 1009.5mb 69f 67f
Qua 09/17 11:50 5.5ft 16s 6s 20 25 mph 1009.4mb 69f 66f
10:50 5ft 16s 6s 20 22 mph 1009.5mb 69f 66f
9:50 5.5ft 17s 7s 20 25 mph 1009.4mb 69f 66f
8:50 6ft 17s 6s 20 25 mph 1008.9mb 69f 66f
7:50 5.5ft 17s 6s 20 25 mph 1008.6mb 69f 66f
6:50 6ft 17s 6s 20 25 mph 1008.2mb 69f 66f
5:50 6ft 17s 6s 22 27 mph 1008mb 68f 66f
4:50 6ft 17s 6s 22 27 mph 1008mb 68f 66f
3:50 5ft 17s 5s 20 25 mph 1008.3mb 68f 65f
2:50 6ft 17s 6s 20 25 mph 1008.6mb 67f 65f
1:50 6ft 17s 6s 22 27 mph 1009.1mb 67f 65f
12:50 6ft 17s 6s 20 27 mph 1009.4mb 67f 65f
11:50 5ft 17s 5s 22 27 mph 1009.3mb 67f 65f
10:50 5ft 17s 5s 22 27 mph 1009.2mb 67f 64f
9:50 5ft 17s 5s 22 27 mph 1008.6mb 66f 65f
8:50 6ft 17s 6s 22 27 mph 1008.1mb 66f 65f
7:50 5ft 17s 5s 22 27 mph 1007.7mb 66f 65f
6:50 6ft 17s 6s 20 25 mph 1007.1mb 66f 66f
5:50 5.5ft 17s 5s 22 27 mph 1006.6mb 67f 66f
4:50 5.5ft 17s 5s 22 27 mph 1006.5mb 67f 66f
3:50 6.5ft 17s 6s 22 27 mph 1006.2mb 67f 66f
2:50 6ft 6s 5s 22 27 mph 1006.7mb 67f 66f
1:50 7ft 7s 5s 27 31 mph 1006.6mb 67f 66f
12:50 6.5ft 6s 5s 25 34 mph 1006.9mb 67f 66f
Ter 09/16 11:50 7ft 6s 5s 27 34 mph 1006.8mb 68f 66f
10:50 8ft 19s 6s 27 34 mph 1006.9mb 68f 66f
9:50 7ft 7s 5s 27 34 mph 1007.1mb 67f 66f
8:50 7ft 7s 6s 27 31 mph 1006.8mb 67f 67f
7:50 7ft 7s 5s 29 36 mph 1006.7mb 67f 66f
6:50 7ft 7s 6s 27 34 mph 1006.4mb 68f 67f
5:50 7ft 6s 5s 29 36 mph 1006.3mb 68f 66f
4:50 6ft 6s 5s 29 36 mph 1006.1mb 68f 66f
3:50 7ft 19s 6s 22 27 mph 1006.6mb 68f 67f
2:50 6.5ft 6s 5s 20 25 mph 1007.4mb 67f 67f
1:50 7ft 19s 6s 22 29 mph 1008mb 67f 66f
12:50 7ft 6s 5s 22 29 mph 1008.7mb 67f 66f
11:50 7ft 19s 5s 22 27 mph 1009.1mb 67f 66f
10:50 7ft 7s 6s 25 31 mph 1009mb 67f 66f
9:50 6ft 6s 5s 22 29 mph 1009.6mb 66f 66f
8:50 7ft 6s 6s 27 34 mph 1008.8mb 66f 66f
7:50 6ft 7s 5s 25 31 mph 1008.6mb 66f 66f
6:50 7ft 19s 6s 22 27 mph 1008.7mb 66f 66f